This is the latest recevied weather packets stored in our database for station/object IW5CTE-13. If no packets are shown the sender has not sent any weather packets the latest 10 day(s).
| Time | Temp. | Humidity | Pressure | Rain* | Wind** | Luminosity | Snow |
|---|---|---|---|---|---|---|---|
| 1777615051 | 13.89° C | 36% | 1025.3 hPa | - | - | - | - |
| 1777614453 | 13.33° C | 36% | 1025.2 hPa | - | - | - | - |
| 1777613851 | 13.33° C | 37% | 1025 hPa | - | - | - | - |
| 1777613251 | 12.78° C | 39% | 1025 hPa | - | - | - | - |
| 1777612651 | 12.78° C | 37% | 1025 hPa | - | - | - | - |
| 1777612051 | 12.78° C | 34% | 1024.9 hPa | - | - | - | - |
| 1777611451 | 12.22° C | 35% | 1024.8 hPa | - | - | - | - |
| 1777610851 | 11.67° C | 35% | 1024.8 hPa | - | - | - | - |
| 1777610251 | 11.11° C | 39% | 1024.7 hPa | - | - | - | - |
| 1777609651 | 11.11° C | 40% | 1024.6 hPa | - | - | - | - |
| 1777609051 | 11.11° C | 40% | 1024.6 hPa | - | - | - | - |
| 1777608451 | 11.11° C | 41% | 1024.3 hPa | - | - | - | - |
| 1777607851 | 11.11° C | 42% | 1024.2 hPa | - | - | - | - |
| 1777607251 | 11.11° C | 43% | 1024.3 hPa | - | - | - | - |
| 1777606651 | 11.11° C | 42% | 1024.1 hPa | - | - | - | - |
| 1777606051 | 11.67° C | 42% | 1024.1 hPa | - | - | - | - |
| 1777605451 | 11.67° C | 40% | 1024 hPa | - | - | - | - |
| 1777604851 | 11.11° C | 41% | 1024 hPa | - | - | - | - |
| 1777604251 | 11.67° C | 41% | 1024 hPa | - | - | - | - |
| 1777603651 | 11.67° C | 40% | 1024 hPa | - | - | - | - |
| 1777603051 | 12.22° C | 38% | 1024 hPa | - | - | - | - |
| 1777602451 | 12.22° C | 37% | 1023.9 hPa | - | - | - | - |
| 1777601851 | 12.22° C | 36% | 1023.8 hPa | - | - | - | - |
| 1777601251 | 12.22° C | 35% | 1023.7 hPa | - | - | - | - |
| 1777600651 | 12.22° C | 35% | 1023.8 hPa | - | - | - | - |
* Rain since midnight (hover to see other rain measurements)
** Current wind speed in m/s (hover to see current wind gust speed)